User: anonymous   Login
Location: Unspecified
(0.0000°N, 0.0000°E)
Time: 14:16:06
(UTC+02:00)
Language:

ARIANE 5 R/B - Orbit

View from above orbital plane
View from above orbital plane
View from above satellite
View from above satellite

Ground track
Ground track

The orbit data is extracted from the following two-line orbital elements,

1 28379U 04027B   17172.79145956 -.00000226 +00000-0 -45437-3 0  9994
2 28379 007.2314 327.5975 7286090 075.4283 239.2804 02.07932764098215
Epoch (UTC): 21 June 2017 18:59:42
Eccentricity: 0.7286090
inclination: 7.2314°
perigee height: 659 km
apogee height: 38442 km
right ascension of ascending node: 327.5975°
argument of perigee: 75.4283°
revolutions per day: 2.07932764
mean anomaly at epoch: 239.2804°
orbit number at epoch: 9821

The dashed part of the orbit path shows where the satellite is in the earth's shadow,  

DLR